Terminal Aerodrome Forecast
Issued by NWS Grand Forks, ND

Home | Current Version | Previous Version | Graphics & Text | Print | Product List | Glossary On
Versions: 1 2 3 4 5 6 7 8 9 10 11 12 13
000
FTUS43 KFGF 081200 AAA
TAFFAR
TAF AMD
KFAR 081232Z 0813/0912 30008KT P6SM SCT016
      TEMPO 0813/0814 BKN016
     FM081500 32017KT P6SM SCT050
      TEMPO 0815/0818 BKN040
     FM090200 31007KT P6SM SKC=

USA.gov is the U.S. government's official web portal to all federal, state and local government web resources and services.